ALOS-2

Last updated on Sun Apr 12 2026 00:02:17 GMT+0000 (Coordinated Universal Time)

1 39766U 14029A 26101.45314147 .00000189 00000+0 32249-4 0 9997 2 39766 97.9190 199.5736 0001834 90.5580 269.5842 14.79470532641718
UTC large
Height (km)
Speed (km/s)
/
Latitude / Longitude
Inclination (degrees)
Orbital Period (minutes)
Azimuth
Elevation
Range (km)
Doppler Factor

Next 0 passes for location: London (51.5072 / 0.1276)

Sorry there are no passes over London.
ALOS-2